Simultaneous Nadir Overpasses (SNOs) Predictions

Prediction of SNOs between AQUA and METOP-A Satellite Orbit:

Table of predicted SNOs for the next 14.0 days since TLE Epoch: 10/10/2014
Index Date (AQUA) Time (AQUA) Lat,Lon (AQUA) SZA (AQUA ) Date (METOP-A) Time (METOP-A) Lat,Lon (METOP-A) SZA (METOP-A ) Distance(km) Time Diff (sec)
1 10/12/2014 20:52:22 -73.80, 41.19 98.67 10/12/2014 20:51:51 -73.79, 41.29 98.68 3.20 31
2 10/12/2014 21:41:51 73.87,-151.33 81.42 10/12/2014 21:42:30 73.86,-151.23 81.40 3.41 39
3 10/15/2014 16:26:39 -73.80, 107.64 97.63 10/15/2014 16:26:12 -73.79, 107.70 97.63 2.09 27
4 10/15/2014 17:16:08 73.87, -84.89 82.46 10/15/2014 17:16:51 73.85, -84.83 82.44 2.89 43
5 10/18/2014 12:00:55 -73.77, 174.12 96.63 10/18/2014 12:00:33 -73.78, 174.10 96.61 1.65 22
6 10/18/2014 12:50:24 73.85, -18.41 83.47 10/18/2014 12:51:12 73.84, -18.44 83.46 1.71 48
7 10/21/2014 06:45:32 73.08, 74.37 83.67 10/21/2014 06:44:27 73.04, 71.50 83.66 92.88 65
8 10/21/2014 07:35:11 -73.78,-119.46 95.61 10/21/2014 07:34:54 -73.77,-119.51 95.62 2.00 17
9 10/21/2014 08:24:40 73.86, 48.00 84.49 10/21/2014 08:25:32 73.87, 48.05 84.50 1.65 52
10 10/24/2014 02:19:51 73.33, 140.28 84.92 10/24/2014 02:18:42 73.26, 138.42 84.87 60.17 69




NCC Satellite Simultaneous Nadir Overpasses (SNOs) Prediction Service
